Thomson, GA

4:07 PM EDT on July 24, 2017 (GMT -0400)
Thomson-McDuffie County

Weather History for KHQU - July, 2013

Change the Weather History Date:

Monday, July 15, 2013

  Actual Average (KDNL) Record (KDNL)
Temperature  
Mean Temperature 77 °F -  
Max Temperature 85 °F 89 °F 99 °F (2016)
Min Temperature 69 °F 70 °F 64 °F (2001)
Cooling Degree Days 12    
Growing Degree Days 27 (Base 50)    
Moisture  
Dew Point 73 °F    
Average Humidity 96    
Maximum Humidity 100    
Minimum Humidity 74    
Precipitation  
Precipitation 0.00 in - - ()
Sea Level Pressure  
Sea Level Pressure 30.29 in    
Wind  
Wind Speed 4 mph (ENE)    
Max Wind Speed 13 mph    
Max Gust Speed 30 mph    
Visibility 8 miles    
Events      
Averages and records for this station are not official NWS values.
T = Trace of Precipitation, MM = Missing Value Source: NWS Daily Summary

Daily Weather History Graph

Daily Weather History Graph

Search for Another Location

Airport or City:

Trip Planner

Search our weather history database for the weather conditions in past years. The results will help you decide how hot, cold, wet, or windy it might be!

Date:

Astronomy

Jul. 15, 2013 Rise Set
Actual Time 6:31 AM EDT 8:40 PM EDT
Civil Twilight 6:02 AM EDT 9:08 PM EDT
Nautical Twilight 5:28 AM EDT 9:43 PM EDT
Astronomical Twilight 4:51 AM EDT 10:20 PM EDT
Moon 1:25 PM EDT (7/15) 12:15 AM EDT (7/15)
Length of Visible Light 15h 05m
Length of Day
14h 09m
Waxing Crescent, 45% of the Moon is Illuminated
Jul 15
Waxing Crescent
Jul 15
First Quarter
Jul 22
Full
Jul 29
Last Quarter
Aug 6
New

Hourly Weather History & Observations

Time (EDT) Temp. Heat Index Dew Point Humidity Pressure Visibility Wind Dir Wind Speed Gust Speed Precip Events Conditions
12:15 AM 71.1 °F - 71.1 °F 100% 30.27 in 10.0 mi ENE 4.6 mph - N/A   Clear
12:35 AM 70.5 °F - 70.5 °F 100% 30.28 in 7.0 mi Calm Calm - N/A   Scattered Clouds
12:55 AM 70.0 °F - 70.0 °F 100% 30.28 in 5.0 mi Calm Calm - N/A   Scattered Clouds
1:15 AM 69.6 °F - 69.6 °F 100% 30.28 in 4.0 mi Calm Calm - N/A   Scattered Clouds
1:35 AM 69.6 °F - 69.6 °F 100% 30.28 in 5.0 mi Calm Calm - N/A   Mostly Cloudy
1:55 AM 69.3 °F - 69.3 °F 100% 30.28 in 5.0 mi Calm Calm - N/A   Scattered Clouds
2:15 AM 69.1 °F - 69.1 °F 100% 30.28 in 5.0 mi ENE 3.5 mph - N/A   Clear
2:35 AM 69.6 °F - 69.6 °F 100% 30.28 in 7.0 mi ENE 3.5 mph - N/A   Clear
2:55 AM 70.7 °F - 70.7 °F 100% 30.28 in 7.0 mi ENE 4.6 mph - N/A   Scattered Clouds
3:15 AM 70.7 °F - 70.7 °F 100% 30.28 in 7.0 mi Calm Calm - N/A   Scattered Clouds
3:35 AM 70.9 °F - 70.9 °F 100% 30.27 in 7.0 mi Calm Calm - N/A   Scattered Clouds
3:55 AM 70.5 °F - 70.5 °F 100% 30.28 in 4.0 mi Calm Calm - N/A   Mostly Cloudy
4:15 AM 70.0 °F - 70.0 °F 100% 30.28 in 5.0 mi Calm Calm - N/A   Mostly Cloudy
4:35 AM 71.1 °F - 71.1 °F 100% 30.28 in 7.0 mi East 3.5 mph - N/A   Overcast
4:55 AM 71.6 °F - 71.6 °F 100% 30.28 in 7.0 mi ENE 4.6 mph - N/A   Overcast
5:15 AM 71.8 °F - 71.8 °F 100% 30.29 in 5.0 mi ENE 4.6 mph - N/A   Overcast
5:35 AM 72.0 °F - 72.0 °F 100% 30.29 in 5.0 mi ENE 3.5 mph - N/A   Overcast
5:55 AM 72.1 °F - 72.1 °F 100% 30.29 in 5.0 mi East 6.9 mph - N/A   Overcast
6:15 AM 72.5 °F - 72.5 °F 100% 30.29 in 5.0 mi ENE 4.6 mph - N/A   Overcast
6:35 AM 72.5 °F - 72.5 °F 100% 30.30 in 5.0 mi ENE 4.6 mph - N/A   Overcast
6:55 AM 72.5 °F - 72.5 °F 100% 30.30 in 4.0 mi ENE 4.6 mph - N/A   Overcast
7:15 AM 72.7 °F - 72.7 °F 100% 30.31 in 5.0 mi ENE 6.9 mph - N/A   Overcast
7:35 AM 73.0 °F - 73.0 °F 100% 30.31 in 5.0 mi ENE 4.6 mph - N/A   Overcast
7:55 AM 73.4 °F - 73.4 °F 100% 30.31 in 7.0 mi ENE 5.8 mph - N/A   Overcast
8:15 AM 73.4 °F - 73.4 °F 100% 30.32 in 7.0 mi ENE 4.6 mph - N/A   Overcast
8:35 AM 74.3 °F - 74.3 °F 100% 30.32 in 7.0 mi ENE 4.6 mph - N/A   Overcast
8:55 AM 75.0 °F - 74.7 °F 99% 30.32 in 10.0 mi East 8.1 mph - N/A   Overcast
9:15 AM 75.6 °F - 75.4 °F 99% 30.32 in 10.0 mi ENE 9.2 mph - N/A   Overcast
9:35 AM 76.8 °F - 75.2 °F 95% 30.32 in 10.0 mi ENE 6.9 mph - N/A   Overcast
9:55 AM 77.0 °F - 74.8 °F 93% 30.32 in 10.0 mi ENE 8.1 mph - N/A   Overcast
10:15 AM 77.9 °F - 75.0 °F 91% 30.32 in 10.0 mi ENE 12.7 mph - N/A   Mostly Cloudy
10:35 AM 79.7 °F - 75.2 °F 86% 30.32 in 10.0 mi East 10.4 mph 16.1 mph N/A   Scattered Clouds
10:55 AM 80.1 °F 85.1 °F 75.0 °F 85% 30.32 in 10.0 mi ENE 12.7 mph - N/A   Mostly Cloudy
11:15 AM 79.7 °F - 75.0 °F 86% 30.32 in 10.0 mi ENE 8.1 mph - N/A   Scattered Clouds
11:35 AM 78.8 °F - 75.4 °F 89% 30.32 in 7.0 mi East 5.8 mph - N/A   Mostly Cloudy
11:55 AM 78.8 °F - 75.2 °F 89% 30.33 in 10.0 mi East 4.6 mph - N/A   Mostly Cloudy
12:15 PM 81.1 °F 87.4 °F 75.4 °F 83% 30.32 in 10.0 mi NE 5.8 mph - N/A   Mostly Cloudy
12:35 PM 82.4 °F 90.1 °F 76.1 °F 81% 30.31 in 10.0 mi NE 9.2 mph - N/A   Scattered Clouds
12:55 PM 81.9 °F 88.5 °F 75.2 °F 80% 30.31 in 10.0 mi ENE 5.8 mph - N/A   Scattered Clouds
1:15 PM 83.3 °F 92.1 °F 76.6 °F 80% 30.30 in 10.0 mi East 3.5 mph - N/A   Mostly Cloudy
1:35 PM 83.1 °F 90.7 °F 75.2 °F 77% 30.29 in 10.0 mi ENE 3.5 mph - N/A   Scattered Clouds
1:55 PM 84.6 °F 94.3 °F 76.8 °F 77% 30.29 in 10.0 mi ENE 8.1 mph - N/A   Scattered Clouds
2:15 PM 84.9 °F 94.1 °F 75.7 °F 74% 30.27 in 10.0 mi ENE 11.5 mph - N/A   Scattered Clouds
2:35 PM 85.1 °F 94.5 °F 75.9 °F 74% 30.27 in 10.0 mi ENE 5.8 mph - N/A   Scattered Clouds
2:55 PM 82.8 °F 91.3 °F 76.6 °F 82% 30.27 in 10.0 mi NE 3.5 mph - N/A   Mostly Cloudy
3:15 PM 82.0 °F 89.9 °F 76.6 °F 84% 30.26 in 5.0 mi Calm Calm - N/A   Mostly Cloudy
3:35 PM 81.7 °F 90.0 °F 77.9 °F 88% 30.25 in 10.0 mi NE 9.2 mph - N/A   Overcast
3:55 PM 75.4 °F - 73.0 °F 92% 30.27 in 0.2 mi ENE 8.1 mph 29.9 mph N/A   Overcast
4:15 PM 71.6 °F - 71.6 °F 100% 30.29 in 0.5 mi ENE 5.8 mph - N/A   Overcast
4:35 PM 72.1 °F - 72.1 °F 100% 30.29 in 7.0 mi Calm Calm - N/A   Mostly Cloudy
4:55 PM 72.3 °F - 72.3 °F 100% 30.29 in 7.0 mi ENE 5.8 mph - N/A   Clear
5:15 PM 72.9 °F - 72.9 °F 100% 30.27 in 10.0 mi Calm Calm - N/A   Clear
5:35 PM 73.6 °F - 73.6 °F 100% 30.27 in 10.0 mi Calm Calm - N/A   Clear
5:55 PM 73.8 °F - 73.8 °F 100% 30.27 in 10.0 mi Calm Calm - N/A   Clear
6:15 PM 74.1 °F - 74.1 °F 100% 30.27 in 10.0 mi North 3.5 mph - N/A   Clear
6:35 PM 74.3 °F - 74.3 °F 100% 30.28 in 10.0 mi NNE 3.5 mph - N/A   Clear
6:55 PM 74.7 °F - 74.7 °F 100% 30.29 in 10.0 mi Calm Calm - N/A   Clear
7:15 PM 74.7 °F - 74.7 °F 100% 30.28 in 10.0 mi NE 4.6 mph - N/A   Clear
7:35 PM 74.5 °F - 74.5 °F 100% 30.27 in 10.0 mi NNE 3.5 mph - N/A   Clear
7:55 PM 74.3 °F - 74.3 °F 100% 30.27 in 10.0 mi NE 5.8 mph - N/A   Clear
8:15 PM 74.3 °F - 74.3 °F 100% 30.27 in 10.0 mi ENE 3.5 mph - N/A   Clear
8:35 PM 74.1 °F - 74.1 °F 100% 30.27 in 10.0 mi Calm Calm - N/A   Clear
8:55 PM 73.6 °F - 73.6 °F 100% 30.28 in 10.0 mi Calm Calm - N/A   Clear
9:15 PM 73.2 °F - 73.2 °F 100% 30.28 in 7.0 mi Calm Calm - N/A   Clear
9:35 PM 72.9 °F - 72.9 °F 100% 30.29 in 7.0 mi East 3.5 mph - N/A   Clear
9:55 PM 72.9 °F - 72.9 °F 100% 30.30 in 10.0 mi ENE 3.5 mph - N/A   Clear
10:15 PM 72.9 °F - 72.9 °F 100% 30.31 in 10.0 mi Calm Calm - N/A   Clear
10:35 PM 72.5 °F - 72.5 °F 100% 30.31 in 5.0 mi Calm Calm - N/A   Clear
11:15 PM 71.6 °F - 71.6 °F 100% 30.32 in 4.0 mi Calm Calm - N/A   Clear
11:35 PM 71.2 °F - 71.2 °F 100% 30.32 in 3.0 mi Calm Calm - N/A   Clear
11:55 PM 70.7 °F - 70.7 °F 100% 30.32 in 1.0 mi Calm Calm - N/A   Unknown